Back to catalog

FENGYUN 1C DEB *

AliveSSO
NORAD 49389·DEBRIS·🇨🇳 China

Launched May 10, 1999 from Taiyuan Satellite Launch Center

Loading…

Next Passes (next 24 hours)

TLE

AgingSource: Space-Track

Epoch: Sep 6, 2026, 06:55 UTC

1 49389U 99025FCJ 26249.28824850  .00002158  00000-0  13472-2 0  9993
2 49389  98.7228  72.5643 0134129 163.6467 196.9090 14.01403253265944

Track FENGYUN 1C DEB * in real time with AllMySat

Download on the App Store